Hourly Data Report for February 12, 2004

TORONTO CITY
ONTARIO

43°40'00.000" N
79°24'00.000" W
112.50 m
6158355
71508
XTO

Download Data

Hourly Data (February 2004)
Hourly Data Report for February 12, 2004
TIME
LST
Temp Definition
°C
Dew Point Definition
°C
Rel Hum Definition
%
Precip. Amount Definition
mm

Wind Dir Definition
10's deg

Wind Spd Definition
km/h
Visibility Definition
km
Stn Press Definition
kPa
Hmdx Definition


Wind Chill Definition


Weather Definition


00:00 -2.6 -7.5 69   LegendMM LegendMM LegendMM 100.94     LegendNANA
01:00 -2.5 -7.1 71   LegendMM LegendMM LegendMM 100.89     LegendNANA
02:00 -2.5 -6.9 72   LegendMM LegendMM LegendMM 100.84     LegendNANA
03:00 -2.1 -5.8 76   LegendMM LegendMM LegendMM 100.82     LegendNANA
04:00 -2.2 -5.1 80   LegendMM LegendMM LegendMM 100.80     LegendNANA
05:00 -2.3 -5.1 81   LegendMM LegendMM LegendMM 100.71     LegendNANA
06:00 -2.3 -5.5 79   LegendMM LegendMM LegendMM 100.67     LegendNANA
07:00 -2.1 -5.6 77   LegendMM LegendMM LegendMM 100.65     LegendNANA
08:00 -2.1 -4.9 81   LegendMM LegendMM LegendMM 100.69     LegendNANA
09:00 -1.8 -5.2 78   LegendMM LegendMM LegendMM 100.67     LegendNANA
10:00 -1.6 -4.5 81   LegendMM LegendMM LegendMM 100.65     LegendNANA
11:00 -1.4 -3.9 83   LegendMM LegendMM LegendMM 100.60     LegendNANA
12:00 -1.3 -3.3 86   LegendMM LegendMM LegendMM 100.59     LegendNANA
13:00 -1.4 -3.5 86   LegendMM LegendMM LegendMM 100.52     LegendNANA
14:00 -1.1 -3.4 84   LegendMM LegendMM LegendMM 100.46     LegendNANA
15:00 -0.6 -2.7 86   LegendMM LegendMM LegendMM 100.44     LegendNANA
16:00 -0.8 -2.7 87   LegendMM LegendMM LegendMM 100.44     LegendNANA
17:00 -0.7 -3.2 83   LegendMM LegendMM LegendMM 100.44     LegendNANA
18:00 -1.2 -4.1 81   LegendMM LegendMM LegendMM 100.47     LegendNANA
19:00 -1.2 -5.0 75   LegendMM LegendMM LegendMM 100.49     LegendNANA
20:00 -1.9 -5.1 79   LegendMM LegendMM LegendMM 100.47     LegendNANA
21:00 -2.1 -5.1 80   LegendMM LegendMM LegendMM 100.47     LegendNANA
22:00 -3.2 -6.3 79   LegendMM LegendMM LegendMM 100.48     LegendNANA
23:00 -4.6 -8.3 75   LegendMM LegendMM LegendMM 100.48     LegendNANA

Notes on Data Quality.

Legend

  • E = Estimated
  • M = Missing
  • NA = Not Available*
  • [empty] = Indicates an unobserved value
Date modified: